TimeCDT,TemperatureF,Dew PointF,Humidity,Sea Level PressureIn,VisibilityMPH,Wind Direction,Wind SpeedMPH,Gust SpeedMPH,PrecipitationIn,Events,Conditions,WindDirDegrees,DateUTC
12:13 AM,48.2,41.0,76,30.02,10.0,Calm,Calm,-,N/A,,Clear,0,2012-09-30 05:13:00
12:32 AM,46.4,39.2,76,30.02,10.0,Calm,Calm,-,N/A,,Clear,0,2012-09-30 05:32:00
12:53 AM,46.4,39.2,76,30.02,10.0,Calm,Calm,-,N/A,,Clear,0,2012-09-30 05:53:00
1:13 AM,46.4,39.2,76,30.01,10.0,Calm,Calm,-,N/A,,Clear,0,2012-09-30 06:13:00
1:32 AM,46.4,39.2,76,30.01,10.0,Calm,Calm,-,N/A,,Clear,0,2012-09-30 06:32:00
1:53 AM,44.6,39.2,81,30.01,10.0,ESE,3.5,-,N/A,,Clear,120,2012-09-30 06:53:00
2:12 AM,48.2,39.2,71,30.01,10.0,SE,3.5,-,N/A,,Clear,130,2012-09-30 07:12:00
2:33 AM,48.2,39.2,71,30.00,10.0,Calm,Calm,-,N/A,,Clear,0,2012-09-30 07:33:00
2:53 AM,46.4,37.4,71,30.00,10.0,Calm,Calm,-,N/A,,Clear,0,2012-09-30 07:53:00
3:12 AM,46.4,37.4,71,30.00,10.0,Calm,Calm,-,N/A,,Clear,0,2012-09-30 08:12:00
3:33 AM,44.6,37.4,76,29.99,10.0,Calm,Calm,-,N/A,,Clear,0,2012-09-30 08:33:00
3:53 AM,44.6,39.2,81,29.99,10.0,SE,3.5,-,N/A,,Clear,140,2012-09-30 08:53:00
4:12 AM,42.8,37.4,81,29.99,10.0,Calm,Calm,-,N/A,,Clear,0,2012-09-30 09:12:00
4:33 AM,44.6,39.2,81,29.99,10.0,Calm,Calm,-,N/A,,Clear,0,2012-09-30 09:33:00
4:53 AM,44.6,39.2,81,29.99,10.0,Calm,Calm,-,N/A,,Clear,0,2012-09-30 09:53:00
5:12 AM,44.6,37.4,76,29.99,10.0,Calm,Calm,-,N/A,,Clear,0,2012-09-30 10:12:00
5:33 AM,42.8,37.4,81,29.99,10.0,Calm,Calm,-,N/A,,Clear,0,2012-09-30 10:33:00
5:53 AM,42.8,37.4,81,29.99,10.0,Calm,Calm,-,N/A,,Clear,0,2012-09-30 10:53:00
6:12 AM,42.8,37.4,81,29.99,10.0,Calm,Calm,-,N/A,,Clear,0,2012-09-30 11:12:00
6:33 AM,42.8,37.4,81,29.98,10.0,Calm,Calm,-,N/A,,Clear,0,2012-09-30 11:33:00
6:53 AM,44.6,37.4,76,29.98,10.0,Calm,Calm,-,N/A,,Clear,0,2012-09-30 11:53:00
7:12 AM,42.8,37.4,81,29.98,10.0,Calm,Calm,-,N/A,,Clear,0,2012-09-30 12:12:00
7:33 AM,42.8,37.4,81,29.99,10.0,South,3.5,-,N/A,,Clear,180,2012-09-30 12:33:00
7:52 AM,42.8,37.4,81,29.99,10.0,Calm,Calm,-,N/A,,Clear,0,2012-09-30 12:52:00
8:13 AM,44.6,37.4,76,29.99,10.0,Calm,Calm,-,N/A,,Clear,0,2012-09-30 13:13:00
8:33 AM,51.8,41.0,67,29.98,10.0,South,4.6,-,N/A,,Clear,170,2012-09-30 13:33:00
8:52 AM,53.6,41.0,62,29.98,10.0,South,4.6,-,N/A,,Clear,180,2012-09-30 13:52:00
9:13 AM,55.4,41.0,58,29.98,10.0,South,4.6,-,N/A,,Clear,170,2012-09-30 14:13:00
9:33 AM,57.2,41.0,55,29.98,7.0,South,4.6,-,N/A,,Clear,180,2012-09-30 14:33:00
9:52 AM,60.8,41.0,48,29.98,7.0,South,3.5,-,N/A,,Clear,170,2012-09-30 14:52:00
10:13 AM,64.4,39.2,40,29.98,10.0,South,4.6,-,N/A,,Clear,180,2012-09-30 15:13:00
10:33 AM,66.2,39.2,37,29.98,10.0,Calm,Calm,-,N/A,,Clear,0,2012-09-30 15:33:00
10:52 AM,69.8,39.2,33,29.98,10.0,SSW,3.5,-,N/A,,Clear,200,2012-09-30 15:52:00
11:13 AM,71.6,39.2,31,29.97,10.0,SSW,3.5,-,N/A,,Clear,210,2012-09-30 16:13:00
11:33 AM,73.4,39.2,29,29.96,10.0,WSW,4.6,-,N/A,,Clear,240,2012-09-30 16:33:00
11:52 AM,75.2,39.2,27,29.96,10.0,Calm,Calm,-,N/A,,Clear,0,2012-09-30 16:52:00
12:13 PM,77.0,39.2,26,29.95,10.0,SW,3.5,-,N/A,,Clear,230,2012-09-30 17:13:00
12:33 PM,78.8,39.2,24,29.95,10.0,SW,6.9,-,N/A,,Clear,220,2012-09-30 17:33:00
12:52 PM,80.6,39.2,23,29.94,10.0,SSW,6.9,-,N/A,,Clear,210,2012-09-30 17:52:00
1:13 PM,80.6,39.2,23,29.94,10.0,SW,8.1,-,N/A,,Clear,230,2012-09-30 18:13:00
1:33 PM,82.4,37.4,20,29.93,10.0,SW,8.1,-,N/A,,Clear,220,2012-09-30 18:33:00
1:52 PM,82.4,37.4,20,29.92,10.0,WSW,9.2,-,N/A,,Clear,250,2012-09-30 18:52:00
2:13 PM,82.4,35.6,19,29.91,10.0,Calm,Calm,-,N/A,,Clear,0,2012-09-30 19:13:00
2:52 PM,84.2,37.4,19,29.90,10.0,West,10.4,-,N/A,,Clear,280,2012-09-30 19:52:00
3:13 PM,84.2,39.2,20,29.89,10.0,West,9.2,-,N/A,,Clear,260,2012-09-30 20:13:00
3:32 PM,84.2,37.4,19,29.88,10.0,WSW,9.2,-,N/A,,Clear,240,2012-09-30 20:32:00
3:53 PM,84.2,37.4,19,29.88,10.0,West,8.1,-,N/A,,Clear,270,2012-09-30 20:53:00
4:13 PM,84.2,35.6,18,29.88,10.0,WNW,8.1,-,N/A,,Clear,300,2012-09-30 21:13:00
4:32 PM,84.2,35.6,18,29.87,10.0,WNW,10.4,-,N/A,,Clear,290,2012-09-30 21:32:00
4:53 PM,84.2,35.6,18,29.87,7.0,West,9.2,-,N/A,,Clear,280,2012-09-30 21:53:00
5:13 PM,84.2,35.6,18,29.87,10.0,West,8.1,-,N/A,,Clear,260,2012-09-30 22:13:00
5:32 PM,82.4,33.8,17,29.86,10.0,West,8.1,-,N/A,,Clear,270,2012-09-30 22:32:00
5:53 PM,82.4,35.6,19,29.86,10.0,West,6.9,-,N/A,,Clear,270,2012-09-30 22:53:00
6:13 PM,80.6,35.6,20,29.86,10.0,West,4.6,-,N/A,,Scattered Clouds,270,2012-09-30 23:13:00
6:32 PM,78.8,37.4,23,29.86,10.0,WSW,4.6,-,N/A,,Clear,250,2012-09-30 23:32:00
6:53 PM,75.2,35.6,24,29.86,10.0,WSW,5.8,-,N/A,,Clear,250,2012-09-30 23:53:00
7:13 PM,71.6,37.4,29,29.86,10.0,West,3.5,-,N/A,,Clear,260,2012-10-01 00:13:00
7:32 PM,68.0,35.6,30,29.86,10.0,WSW,4.6,-,N/A,,Clear,250,2012-10-01 00:32:00
7:53 PM,66.2,35.6,32,29.87,10.0,West,5.8,-,N/A,,Scattered Clouds,270,2012-10-01 00:53:00
8:13 PM,66.2,35.6,32,29.87,10.0,West,8.1,-,N/A,,Clear,270,2012-10-01 01:13:00
8:32 PM,66.2,35.6,32,29.87,10.0,West,6.9,-,N/A,,Clear,280,2012-10-01 01:32:00
8:53 PM,64.4,35.6,34,29.87,10.0,West,4.6,-,N/A,,Scattered Clouds,280,2012-10-01 01:53:00
9:12 PM,64.4,35.6,34,29.87,10.0,West,8.1,-,N/A,,Scattered Clouds,280,2012-10-01 02:12:00
9:32 PM,62.6,37.4,39,29.87,10.0,West,6.9,-,N/A,,Clear,280,2012-10-01 02:32:00
9:53 PM,62.6,37.4,39,29.87,10.0,West,6.9,-,N/A,,Scattered Clouds,270,2012-10-01 02:53:00
10:12 PM,60.8,37.4,42,29.87,10.0,West,6.9,-,N/A,,Clear,270,2012-10-01 03:12:00
10:32 PM,59.0,37.4,45,29.88,10.0,WNW,4.6,-,N/A,,Clear,290,2012-10-01 03:32:00
10:53 PM,59.0,39.2,48,29.88,10.0,NW,4.6,-,N/A,,Clear,320,2012-10-01 03:53:00
11:33 PM,60.8,42.8,52,29.88,10.0,North,6.9,-,N/A,,Clear,360,2012-10-01 04:33:00
11:53 PM,60.8,44.6,55,29.88,10.0,North,6.9,-,N/A,,Clear,360,2012-10-01 04:53:00